Location: ?astrovice
(49.6513°N, 14.9287°E)
Time: 09:28:01
(UTC+00:00)

Cosmos 864 Rocket - Pass Details

Date: 09 April 2020
Orbit: 953 x 992 km, 82.9° (Epoch: 06 June)

Event Time Altitude Azimuth Distance (km) Brightness Sun altitude
Rises 19:22:39 0° 352° (N) 3,681 8.2 -15.3°
Reaches altitude 10° 19:25:13 10° 355° (N) 2,724 7.4 -15.7°
Maximum altitude 19:31:25 65° 77° (ENE) 1,055 4.5 -16.5°
Enters shadow 19:35:31 22° 155° (SSE) 1,967 5.6 -17.0°
